Location: Newark
(51.3318°N, 0.0053°E)
Time: 01:18:26
(UTC+00:00)

Envisat - Pass Details

Date: 26 January 2022
Orbit: 764 x 765 km, 98.2° (Epoch: 28 May)

Event Time Altitude Azimuth Distance (km) Brightness Sun altitude
Rises 05:56:49 0° 9° (N) 3,244 6.3 -16.9°
Reaches altitude 10° 05:59:15 10° 2° (N) 2,313 5.4 -16.5°
Maximum altitude 06:03:56 39° 295° (WNW) 1,149 3.4 -15.8°
Drops below altitude 10° 06:08:36 10° 228° (SW) 2,299 5.1 -15.1°
Sets 06:11:01 0° 221° (SW) 3,221 5.9 -14.7°
